CW6668 Weather Reports


time (UTC)temp
C
wind
direction
speed
KPH
gust
KPH
rain 1hr
cm
rain 24hr
cm
rain mn
cm
humidity
%
barometer
mb
20260510011521 15 59 0.0 0.0 0.00 0.00 0.00 77 1009.2
20260510010020 16 59 0.0 0.0 0.00 0.00 0.00 76 1008.9
20260510004519 16 59 0.0 0.0 0.00 0.00 0.00 74 1008.8
20260510003018 17 59 0.0 0.0 0.00 0.00 0.00 71 1008.8
20260510001517 17 59 0.0 0.0 0.00 0.00 0.00 68 1008.7
20260510000019 18 59 0.0 0.0 0.00 0.00 0.00 65 1008.6
20260509234516 19 59 0.0 0.0 0.00 0.00 0.00 61 1008.6
20260509233019 20 63 0.0 1.6 0.00 0.00 0.00 64 1008.4
20260509231513 20 51 0.0 0.0 0.00 0.00 0.00 62 1008.4
20260509230014 20 90 0.0 0.0 0.00 0.00 0.00 63 1008.4
20260509224513 20 57 0.0 1.6 0.00 0.00 0.00 67 1008.4
20260509223012 20 58 0.0 3.2 0.00 0.00 0.00 60 1008.3
20260509221511 21 57 0.0 4.8 0.00 0.00 0.00 62 1008.4
20260509220011 21 105 0.0 3.2 0.00 0.00 0.00 62 1008.3
20260509214509 21 71 1.6 3.2 0.00 0.00 0.00 61 1008.3
20260509213013 20 107 0.0 3.2 0.00 0.00 0.00 62 1008.4
20260509211508 21 13 0.0 3.2 0.00 0.00 0.00 59 1008.3
20260509210008 21 63 3.2 6.4 0.00 0.00 0.00 52 1008.3
20260509204512 21 207 0.0 6.4 0.00 0.00 0.00 56 1008.4
20260509203018 21 172 1.6 14.5 0.00 0.00 0.00 55 1008.3
20260509201505 22 237 9.7 20.9 0.00 0.00 0.00 55 1008.3
20260509200004 22 122 3.2 17.7 0.00 0.00 0.00 54 1008.4
20260509194600 21 115 6.4 20.9 0.00 0.00 0.00 56 1008.6
20260509193102 21 155 3.2 19.3 0.00 0.00 0.00 57 1008.7
20260509191556 21 132 1.6 9.7 0.00 0.00 0.00 57 1009.1
20260509190055 21 242 3.2 16.1 0.00 0.00 0.00 57 1009.4
20260509184553 21 277 3.2 8.0 0.00 0.00 0.00 58 1009.1
20260509183102 21 57 1.6 6.4 0.00 0.00 0.00 60 1009.7
20260509181550 20 51 0.0 8.0 0.00 0.00 0.00 62 1009.6
20260509180045 19 313 0.0 3.2 0.00 0.00 0.00 62 1010.2
20260509174550 18 285 1.6 6.4 0.00 0.00 0.00 60 1010.5
20260509173046 19 293 1.6 6.4 0.00 0.00 0.00 58 1010.4
20260509171545 20 313 3.2 9.7 0.00 0.00 0.00 59 1010.8
20260509170039 19 270 3.2 6.4 0.00 0.00 0.00 62 1010.8
20260509164538 18 274 3.2 9.7 0.00 0.00 0.00 57 1010.9
20260509163045 17 107 1.6 6.4 0.00 0.00 0.00 59 1010.8
20260509161542 17 65 0.0 6.4 0.00 0.00 0.00 62 1010.9
20260509160034 17 139 3.2 8.0 0.00 0.00 0.00 59 1011.1
20260509154533 17 115 1.6 11.3 0.00 0.00 0.00 61 1011.0
20260509153046 17 228 3.2 11.3 0.00 0.00 0.00 59 1011.1
20260509151536 17 252 3.2 11.3 0.00 0.00 0.00 56 1011.3
20260509150039 17 156 6.4 14.5 0.00 0.00 0.00 58 1011.3
20260509144526 16 151 3.2 9.7 0.00 0.00 0.00 60 1011.5
20260509143022 16 124 3.2 9.7 0.00 0.00 0.00 61 1011.6
20260509141518 15 182 1.6 12.9 0.00 0.00 0.00 61 1011.8
20260509140016 15 163 4.8 9.7 0.00 0.00 0.00 63 1011.4
20260509134513 15 121 4.8 11.3 0.00 0.00 0.00 61 1011.6
20260509133013 15 312 1.6 8.0 0.00 0.00 0.00 60 1011.8
20260509131511 15 192 3.2 11.3 0.00 0.00 0.00 59 1011.7
20260509130009 15 188 1.6 12.9 0.00 0.00 0.00 60 1011.7
20260509124507 15 151 1.6 8.0 0.00 0.00 0.00 61 1011.7
20260509123006 15 164 0.0 4.8 0.00 0.00 0.00 60 1011.7
20260509121506 15 262 0.0 4.8 0.00 0.00 0.00 66 1011.8
20260509120001 14 146 0.0 8.0 0.00 0.00 0.00 61 1011.7
20260509114600 14 190 3.2 11.3 0.00 0.00 0.00 60 1011.4
20260509113105 13 146 3.2 8.0 0.00 0.00 0.00 61 1011.3
20260509111558 13 155 1.6 12.9 0.00 0.00 0.00 59 1011.1
20260509110058 13 96 1.6 4.8 0.00 0.00 0.00 59 1011.1
20260509104554 13 151 1.6 9.7 0.00 0.00 0.00 59 1011.1
20260509103058 13 156 6.4 12.9 0.00 0.00 0.00 58 1010.8
20260509101548 13 184 1.6 8.0 0.00 0.00 0.00 58 1010.9
20260509100051 13 213 3.2 9.7 0.00 0.00 0.00 59 1010.9
20260509094547 13 200 1.6 6.4 0.00 0.00 0.00 60 1010.9
20260509093045 13 208 0.0 9.7 0.00 0.00 0.00 58 1011.0
20260509091543 13 180 3.2 9.7 0.00 0.00 0.00 58 1011.1
20260509090048 13 169 1.6 9.7 0.00 0.00 0.00 58 1011.2
20260509084539 13 101 4.8 8.0 0.00 0.00 0.00 57 1011.3
20260509083036 13 138 1.6 11.3 0.00 0.00 0.00 57 1011.4
20260509081535 13 74 1.6 8.0 0.00 0.00 0.00 56 1011.6
20260509080033 13 142 3.2 12.9 0.00 0.00 0.00 56 1011.8
20260509074531 14 121 4.8 12.9 0.00 0.00 0.00 54 1011.8
20260509073029 15 160 6.4 14.5 0.00 0.00 0.00 51 1011.9
20260509071528 15 146 3.2 16.1 0.00 0.00 0.00 52 1011.7
20260509070025 15 249 4.8 12.9 0.00 0.00 0.00 51 1011.7
20260509064527 15 131 4.8 11.3 0.00 0.00 0.00 51 1011.8
20260509063026 15 165 4.8 12.9 0.00 0.00 0.00 51 1011.9
20260509061526 15 163 1.6 14.5 0.00 0.00 0.00 51 1012.0
20260509060027 15 189 6.4 16.1 0.00 0.00 0.00 51 1012.1
20260509054518 15 157 3.2 12.9 0.00 0.00 0.00 49 1012.0
20260509053016 15 182 6.4 17.7 0.00 0.00 0.00 49 1012.1
20260509051513 15 38 4.8 16.1 0.00 0.00 0.00 49 1012.2
20260509050034 15 129 1.6 12.9 0.00 0.00 0.00 51 1012.2
20260509044512 14 148 1.6 17.7 0.00 0.00 0.00 53 1012.2
20260509043011 13 131 6.4 12.9 0.00 0.00 0.00 55 1012.2
20260509041512 12 121 1.6 6.4 0.00 0.00 0.00 61 1012.2
20260509040010 13 121 0.0 6.4 0.00 0.00 0.00 58 1012.3
20260509034511 13 184 1.6 6.4 0.00 0.00 0.00 56 1012.3
20260509033010 13 153 1.6 8.0 0.00 0.00 0.00 57 1012.3
20260509031518 13 119 0.0 8.0 0.00 0.00 0.00 60 1012.4
20260509030008 13 140 3.2 6.4 0.00 0.00 0.00 59 1012.5
20260509024508 13 128 3.2 9.7 0.00 0.00 0.00 58 1012.6
20260509023014 13 145 1.6 6.4 0.00 0.00 0.00 58 1012.6
20260509021507 15 115 1.6 6.4 0.00 0.00 0.00 54 1012.6
20260509020007 14 131 1.6 6.4 0.00 0.00 0.00 55 1012.5
20260509014506 14 133 0.0 3.2 0.00 0.00 0.00 56 1012.4
20260509013006 15 133 0.0 3.2 0.00 0.00 0.00 51 1012.4